| time (UTC) | temp C | wind direction | speed KPH | gust KPH | rain 1hr cm | rain 24hr cm | rain mn cm | humidity % | barometer mb |
| 20260503022050 | 9 | 0 | 0.0 | 0.0 | 0.00 | 0.51 | 0.51 | 97 | 1014.6 |
| 20260503021559 | 9 | 0 | 0.0 | 0.0 | 0.00 | 0.51 | 0.51 | 97 | 1014.5 |
| 20260503021050 | 9 | 0 | 0.0 | 0.0 | 0.00 | 0.51 | 0.51 | 97 | 1014.5 |
| 20260503020551 | 9 | 0 | 0.0 | 0.0 | 0.00 | 0.51 | 0.51 | 97 | 1014.7 |
| 20260503020059 | 9 | 0 | 0.0 | 0.0 | 0.00 | 0.51 | 0.51 | 97 | 1014.5 |
| 20260503015547 | 9 | 0 | 0.0 | 0.0 | 0.00 | 0.51 | 0.51 | 97 | 1014.6 |
| 20260503015047 | 9 | 0 | 0.0 | 0.0 | 0.00 | 0.51 | 0.51 | 97 | 1014.5 |
| 20260503014549 | 9 | 0 | 0.0 | 0.0 | 0.00 | 0.51 | 0.51 | 96 | 1014.7 |
| 20260503014051 | 9 | 0 | 0.0 | 0.0 | 0.00 | 0.51 | 0.51 | 97 | 1014.6 |
| 20260503013551 | 9 | 0 | 0.0 | 0.0 | 0.00 | 0.51 | 0.51 | 97 | 1014.5 |
| 20260503013052 | 9 | 0 | 0.0 | 0.0 | 0.00 | 0.51 | 0.51 | 97 | 1014.4 |
| 20260503012551 | 9 | 0 | 0.0 | 0.0 | 0.00 | 0.51 | 0.51 | 96 | 1014.3 |
| 20260503012048 | 9 | 0 | 0.0 | 0.0 | 0.00 | 0.51 | 0.51 | 96 | 1014.2 |
| 20260503011554 | 9 | 0 | 0.0 | 0.0 | 0.00 | 0.51 | 0.51 | 96 | 1014.2 |
| 20260503011048 | 9 | 0 | 0.0 | 0.0 | 0.00 | 0.51 | 0.51 | 96 | 1014.1 |
| 20260503010550 | 9 | 0 | 0.0 | 0.0 | 0.00 | 0.51 | 0.51 | 95 | 1014.1 |
| 20260503005550 | 10 | 0 | 0.0 | 0.0 | 0.00 | 0.51 | 0.51 | 95 | 1013.9 |
| 20260503005048 | 10 | 0 | 0.0 | 0.0 | 0.00 | 0.51 | 0.51 | 94 | 1013.8 |
| 20260503004607 | 10 | 0 | 0.0 | 0.0 | 0.00 | 0.51 | 0.51 | 93 | 1013.8 |
| 20260503004050 | 10 | 0 | 0.0 | 0.0 | 0.00 | 0.51 | 0.51 | 93 | 1013.6 |
| 20260503003548 | 10 | 0 | 0.0 | 0.0 | 0.00 | 0.51 | 0.51 | 93 | 1013.6 |
| 20260503003112 | 10 | 0 | 0.0 | 0.0 | 0.00 | 0.51 | 0.51 | 93 | 1013.5 |
| 20260503002549 | 11 | 0 | 0.0 | 0.0 | 0.00 | 0.51 | 0.51 | 92 | 1013.4 |
| 20260503002048 | 11 | 0 | 0.0 | 0.0 | 0.00 | 0.51 | 0.51 | 92 | 1013.4 |
| 20260503001617 | 11 | 0 | 0.0 | 0.0 | 0.00 | 0.51 | 0.51 | 92 | 1013.4 |
| 20260503001051 | 11 | 0 | 0.0 | 0.0 | 0.00 | 0.51 | 0.51 | 91 | 1013.3 |
| 20260503000551 | 11 | 0 | 0.0 | 0.0 | 0.00 | 0.51 | 0.51 | 91 | 1013.3 |
| 20260503000059 | 11 | 0 | 0.0 | 0.0 | 0.00 | 0.51 | 0.51 | 91 | 1013.2 |
| 20260502235548 | 12 | 0 | 0.0 | 0.0 | 0.00 | 0.51 | 0.51 | 90 | 1013.1 |
| 20260502235048 | 12 | 0 | 0.0 | 0.0 | 0.00 | 0.51 | 0.51 | 90 | 1013.1 |
| 20260502234601 | 12 | 0 | 0.0 | 0.0 | 0.00 | 0.51 | 0.51 | 90 | 1012.9 |
| 20260502234049 | 12 | 0 | 0.0 | 0.0 | 0.00 | 0.51 | 0.51 | 90 | 1012.9 |
| 20260502233551 | 12 | 0 | 0.0 | 0.0 | 0.00 | 0.51 | 0.51 | 90 | 1013.0 |
| 20260502233102 | 12 | 0 | 0.0 | 0.0 | 0.00 | 0.51 | 0.51 | 89 | 1013.1 |
| 20260502232548 | 12 | 0 | 0.0 | 0.0 | 0.00 | 0.51 | 0.51 | 89 | 1013.0 |
| 20260502232048 | 12 | 0 | 0.0 | 0.0 | 0.00 | 0.51 | 0.51 | 89 | 1012.9 |
| 20260502231556 | 12 | 0 | 0.0 | 0.0 | 0.00 | 0.51 | 0.51 | 89 | 1012.9 |
| 20260502231050 | 12 | 0 | 0.0 | 0.0 | 0.00 | 0.51 | 0.51 | 88 | 1012.7 |
| 20260502230548 | 12 | 0 | 0.0 | 0.0 | 0.00 | 0.51 | 0.51 | 87 | 1012.7 |
| 20260502230055 | 12 | 0 | 0.0 | 0.0 | 0.00 | 0.51 | 0.51 | 87 | 1012.7 |
| 20260502225550 | 12 | 0 | 0.0 | 0.0 | 0.00 | 0.51 | 0.51 | 88 | 1012.7 |
| 20260502225047 | 12 | 0 | 0.0 | 0.0 | 0.00 | 0.51 | 0.51 | 87 | 1012.7 |
| 20260502224555 | 12 | 0 | 0.0 | 0.0 | 0.00 | 0.51 | 0.51 | 87 | 1012.7 |
| 20260502224048 | 12 | 0 | 0.0 | 0.0 | 0.00 | 0.51 | 0.51 | 87 | 1012.7 |
| 20260502223547 | 12 | 0 | 0.0 | 0.0 | 0.00 | 0.51 | 0.51 | 86 | 1012.5 |
| 20260502223051 | 13 | 0 | 0.0 | 0.0 | 0.00 | 0.51 | 0.51 | 86 | 1012.7 |
| 20260502222551 | 13 | 0 | 0.0 | 0.0 | 0.00 | 0.51 | 0.51 | 86 | 1012.8 |
| 20260502222050 | 13 | 0 | 0.0 | 0.0 | 0.00 | 0.51 | 0.51 | 85 | 1012.7 |
| 20260502221551 | 13 | 0 | 0.0 | 0.0 | 0.00 | 0.51 | 0.51 | 85 | 1012.8 |
| 20260502221048 | 13 | 0 | 0.0 | 0.0 | 0.00 | 0.51 | 0.51 | 85 | 1012.6 |
| 20260502220548 | 13 | 0 | 0.0 | 0.0 | 0.00 | 0.51 | 0.51 | 84 | 1012.4 |
| 20260502220054 | 13 | 0 | 0.0 | 0.0 | 0.00 | 0.51 | 0.51 | 85 | 1012.5 |
| 20260502215548 | 13 | 0 | 0.0 | 0.0 | 0.00 | 0.51 | 0.51 | 84 | 1012.3 |
| 20260502215050 | 13 | 0 | 0.0 | 0.0 | 0.00 | 0.51 | 0.51 | 85 | 1012.3 |
| 20260502214548 | 13 | 0 | 0.0 | 0.0 | 0.00 | 0.51 | 0.51 | 85 | 1012.3 |
| 20260502214048 | 13 | 0 | 0.0 | 1.6 | 0.00 | 0.51 | 0.51 | 84 | 1012.3 |
| 20260502213547 | 13 | 0 | 0.0 | 1.6 | 0.00 | 0.51 | 0.51 | 84 | 1012.4 |
| 20260502213108 | 13 | 0 | 0.0 | 3.2 | 0.00 | 0.51 | 0.51 | 84 | 1012.3 |
| 20260502212550 | 13 | 0 | 0.0 | 3.2 | 0.00 | 0.51 | 0.51 | 83 | 1012.3 |
| 20260502212048 | 13 | 0 | 0.0 | 0.0 | 0.00 | 0.51 | 0.51 | 83 | 1012.3 |
| 20260502211554 | 13 | 0 | 0.0 | 0.0 | 0.00 | 0.51 | 0.51 | 84 | 1012.3 |
| 20260502211049 | 13 | 0 | 0.0 | 0.0 | 0.00 | 0.51 | 0.51 | 85 | 1012.2 |
| 20260502210547 | 13 | 0 | 0.0 | 0.0 | 0.00 | 0.51 | 0.51 | 86 | 1012.2 |
| 20260502210054 | 13 | 0 | 0.0 | 0.0 | 0.00 | 0.51 | 0.51 | 86 | 1012.3 |
| 20260502205547 | 13 | 0 | 0.0 | 1.6 | 0.00 | 0.51 | 0.51 | 85 | 1012.4 |
| 20260502205047 | 13 | 0 | 0.0 | 1.6 | 0.00 | 0.51 | 0.51 | 84 | 1012.4 |
| 20260502204602 | 13 | 234 | 0.0 | 0.0 | 0.00 | 0.51 | 0.51 | 85 | 1012.4 |
| 20260502204054 | 13 | 0 | 0.0 | 0.0 | 0.00 | 0.51 | 0.51 | 86 | 1012.5 |
| 20260502203547 | 13 | 0 | 0.0 | 0.0 | 0.00 | 0.51 | 0.51 | 85 | 1012.5 |
| 20260502203058 | 13 | 0 | 0.0 | 0.0 | 0.00 | 0.51 | 0.51 | 85 | 1012.5 |
| 20260502202548 | 13 | 0 | 0.0 | 1.6 | 0.00 | 0.51 | 0.51 | 85 | 1012.4 |
| 20260502202048 | 13 | 0 | 0.0 | 1.6 | 0.00 | 0.51 | 0.51 | 84 | 1012.5 |
| 20260502201556 | 13 | 113 | 0.0 | 8.0 | 0.00 | 0.51 | 0.51 | 85 | 1012.5 |
| 20260502201048 | 13 | 96 | 0.0 | 8.0 | 0.00 | 0.51 | 0.51 | 86 | 1012.4 |
| 20260502200548 | 13 | 0 | 0.0 | 8.0 | 0.00 | 0.51 | 0.51 | 84 | 1012.4 |
| 20260502200115 | 13 | 0 | 0.0 | 1.6 | 0.00 | 0.51 | 0.51 | 85 | 1012.4 |
| 20260502195550 | 13 | 0 | 0.0 | 1.6 | 0.00 | 0.53 | 0.51 | 86 | 1012.5 |
| 20260502195050 | 13 | 0 | 0.0 | 1.6 | 0.00 | 0.53 | 0.51 | 87 | 1012.5 |
| 20260502194606 | 13 | 0 | 0.0 | 1.6 | 0.00 | 0.53 | 0.51 | 86 | 1012.7 |
| 20260502194050 | 13 | 0 | 0.0 | 8.0 | 0.00 | 0.53 | 0.51 | 85 | 1012.9 |
| 20260502193549 | 13 | 0 | 0.0 | 8.0 | 0.00 | 0.53 | 0.51 | 85 | 1012.8 |
| 20260502193057 | 13 | 119 | 0.0 | 0.0 | 0.00 | 0.53 | 0.51 | 85 | 1013.0 |
| 20260502192551 | 13 | 0 | 0.0 | 6.4 | 0.00 | 0.53 | 0.51 | 85 | 1013.1 |
| 20260502192053 | 13 | 0 | 0.0 | 6.4 | 0.00 | 0.53 | 0.51 | 85 | 1013.1 |
| 20260502191559 | 13 | 178 | 0.0 | 1.6 | 0.00 | 0.53 | 0.51 | 85 | 1013.1 |
| 20260502191048 | 13 | 0 | 0.0 | 1.6 | 0.00 | 0.53 | 0.51 | 87 | 1013.0 |
| 20260502190550 | 13 | 0 | 0.0 | 1.6 | 0.00 | 0.53 | 0.51 | 87 | 1013.1 |
| 20260502190051 | 13 | 0 | 0.0 | 1.6 | 0.00 | 0.53 | 0.51 | 88 | 1013.2 |
| 20260502185550 | 13 | 0 | 0.0 | 4.8 | 0.00 | 0.53 | 0.51 | 88 | 1013.1 |
| 20260502185048 | 13 | 0 | 0.0 | 4.8 | 0.00 | 0.53 | 0.51 | 89 | 1013.1 |
| 20260502184554 | 12 | 130 | 0.0 | 9.7 | 0.00 | 0.53 | 0.51 | 89 | 1013.2 |
| 20260502184051 | 12 | 0 | 1.6 | 9.7 | 0.00 | 0.53 | 0.51 | 90 | 1013.3 |
| 20260502183551 | 12 | 0 | 0.0 | 4.8 | 0.00 | 0.53 | 0.51 | 90 | 1013.3 |
| 20260502183059 | 12 | 0 | 0.0 | 4.8 | 0.00 | 0.53 | 0.51 | 91 | 1013.3 |
| 20260502182551 | 12 | 267 | 1.6 | 4.8 | 0.00 | 0.53 | 0.51 | 92 | 1013.4 |
| 20260502182049 | 12 | 0 | 0.0 | 4.8 | 0.00 | 0.53 | 0.51 | 94 | 1013.5 |
| 20260502181557 | 11 | 102 | 0.0 | 4.8 | 0.00 | 0.53 | 0.51 | 93 | 1013.5 |
| 20260502181049 | 11 | 229 | 0.0 | 3.2 | 0.00 | 0.53 | 0.51 | 93 | 1013.8 |
| 20260502180550 | 11 | 0 | 0.0 | 3.2 | 0.00 | 0.53 | 0.51 | 94 | 1013.8 |
| 20260502170105 | 11 | 0 | 0.0 | 4.8 | 0.05 | 0.53 | 0.51 | 96 | 1014.1 |
| 20260502164049 | 11 | 47 | 0.0 | 4.8 | 0.08 | 0.53 | 0.51 | 96 | 1014.4 |
| 20260502163550 | 11 | 0 | 0.0 | 1.6 | 0.08 | 0.53 | 0.51 | 96 | 1014.3 |
| 20260502163101 | 11 | 153 | 0.0 | 0.0 | 0.05 | 0.51 | 0.48 | 96 | 1014.5 |
| 20260502162550 | 11 | 0 | 0.0 | 0.0 | 0.05 | 0.51 | 0.48 | 96 | 1014.5 |
| 20260502162048 | 11 | 0 | 0.0 | 1.6 | 0.05 | 0.51 | 0.48 | 96 | 1014.8 |
| 20260502161606 | 11 | 0 | 0.0 | 1.6 | 0.05 | 0.51 | 0.48 | 96 | 1014.7 |
| 20260502161047 | 11 | 84 | 0.0 | 1.6 | 0.03 | 0.48 | 0.46 | 96 | 1014.8 |
| 20260502160549 | 11 | 0 | 0.0 | 1.6 | 0.03 | 0.48 | 0.46 | 97 | 1014.8 |
| 20260502160106 | 11 | 0 | 0.0 | 1.6 | 0.05 | 0.48 | 0.46 | 97 | 1014.9 |
| 20260502152050 | 11 | 237 | 0.0 | 0.0 | 0.05 | 0.46 | 0.43 | 96 | 1014.5 |
| 20260502151610 | 11 | 0 | 0.0 | 1.6 | 0.08 | 0.46 | 0.43 | 96 | 1014.6 |
| 20260502151050 | 11 | 0 | 0.0 | 1.6 | 0.08 | 0.46 | 0.43 | 97 | 1014.5 |
| 20260502150552 | 11 | 57 | 0.0 | 3.2 | 0.10 | 0.46 | 0.43 | 96 | 1014.6 |
| 20260502150130 | 11 | 0 | 0.0 | 3.2 | 0.08 | 0.43 | 0.41 | 97 | 1014.6 |
| 20260502130553 | 10 | 0 | 0.0 | 0.0 | 0.10 | 0.18 | 0.15 | 95 | 1013.7 |
| 20260502130105 | 10 | 0 | 0.0 | 1.6 | 0.08 | 0.15 | 0.13 | 95 | 1013.7 |
| 20260502123550 | 10 | 0 | 0.0 | 0.0 | 0.05 | 0.10 | 0.08 | 95 | 1013.4 |
| 20260502123057 | 10 | 0 | 0.0 | 0.0 | 0.05 | 0.10 | 0.08 | 94 | 1013.3 |
| 20260502122550 | 10 | 0 | 0.0 | 0.0 | 0.05 | 0.10 | 0.08 | 94 | 1013.2 |
| 20260502122047 | 10 | 0 | 0.0 | 0.0 | 0.05 | 0.10 | 0.08 | 94 | 1013.2 |
| 20260502121559 | 10 | 0 | 0.0 | 0.0 | 0.05 | 0.08 | 0.05 | 94 | 1013.1 |
| 20260502121049 | 10 | 0 | 0.0 | 0.0 | 0.05 | 0.08 | 0.05 | 94 | 1013.1 |
| 20260502120548 | 10 | 0 | 0.0 | 0.0 | 0.05 | 0.08 | 0.05 | 94 | 1013.3 |
| 20260502120112 | 10 | 0 | 0.0 | 0.0 | 0.05 | 0.08 | 0.05 | 93 | 1013.3 |
| 20260502115549 | 11 | 0 | 0.0 | 0.0 | 0.05 | 0.08 | 0.05 | 93 | 1013.3 |
| 20260502115047 | 11 | 0 | 0.0 | 0.0 | 0.03 | 0.05 | 0.03 | 93 | 1013.2 |
| 20260502114557 | 11 | 0 | 0.0 | 0.0 | 0.03 | 0.05 | 0.03 | 92 | 1013.3 |
| 20260502114047 | 11 | 0 | 0.0 | 0.0 | 0.03 | 0.05 | 0.03 | 92 | 1013.3 |
| 20260502113547 | 11 | 0 | 0.0 | 0.0 | 0.03 | 0.05 | 0.03 | 91 | 1013.2 |
| 20260502113114 | 11 | 0 | 0.0 | 1.6 | 0.03 | 0.05 | 0.03 | 91 | 1013.2 |
| 20260502112546 | 11 | 0 | 0.0 | 1.6 | 0.03 | 0.05 | 0.03 | 91 | 1013.2 |
| 20260502112051 | 11 | 0 | 0.0 | 1.6 | 0.03 | 0.05 | 0.03 | 90 | 1013.4 |
| 20260502111604 | 11 | 0 | 0.0 | 1.6 | 0.00 | 0.03 | 0.00 | 90 | 1013.3 |
| 20260502111052 | 11 | 0 | 0.0 | 1.6 | 0.00 | 0.03 | 0.00 | 90 | 1013.4 |
| 20260502110553 | 11 | 0 | 0.0 | 1.6 | 0.00 | 0.03 | 0.00 | 90 | 1013.4 |
| 20260502110103 | 11 | 0 | 0.0 | 1.6 | 0.00 | 0.03 | 0.00 | 90 | 1013.4 |
| 20260502105547 | 11 | 0 | 0.0 | 1.6 | 0.00 | 0.03 | 0.00 | 91 | 1013.2 |
| 20260502105049 | 11 | 115 | 0.0 | 4.8 | 0.00 | 0.03 | 0.00 | 91 | 1013.2 |
| 20260502104556 | 11 | 0 | 0.0 | 4.8 | 0.00 | 0.03 | 0.00 | 91 | 1013.2 |
| 20260502104049 | 11 | 244 | 0.0 | 0.0 | 0.00 | 0.03 | 0.00 | 92 | 1013.2 |
| 20260502103547 | 11 | 0 | 0.0 | 0.0 | 0.00 | 0.03 | 0.00 | 92 | 1013.3 |
| 20260502103112 | 11 | 0 | 0.0 | 1.6 | 0.00 | 0.03 | 0.00 | 92 | 1013.4 |
| 20260502102548 | 11 | 0 | 0.0 | 1.6 | 0.00 | 0.03 | 0.00 | 92 | 1013.4 |
| 20260502102049 | 11 | 0 | 0.0 | 1.6 | 0.00 | 0.03 | 0.00 | 93 | 1013.4 |
| 20260502101606 | 11 | 0 | 0.0 | 1.6 | 0.00 | 0.03 | 0.00 | 94 | 1013.2 |
| 20260502101049 | 11 | 0 | 0.0 | 3.2 | 0.00 | 0.03 | 0.00 | 94 | 1013.3 |
| 20260502100548 | 11 | 0 | 0.0 | 3.2 | 0.00 | 0.03 | 0.00 | 94 | 1013.4 |
| 20260502091050 | 11 | 0 | 0.0 | 0.0 | 0.00 | 0.03 | 0.00 | 96 | 1013.4 |
| 20260502090550 | 11 | 0 | 0.0 | 0.0 | 0.00 | 0.03 | 0.00 | 96 | 1013.2 |
| 20260502090109 | 11 | 0 | 0.0 | 0.0 | 0.00 | 0.03 | 0.00 | 96 | 1013.1 |
| 20260502071051 | 10 | 0 | 0.0 | 0.0 | 0.00 | 0.03 | 0.00 | 96 | 1012.4 |
| 20260502070551 | 10 | 0 | 0.0 | 0.0 | 0.00 | 0.03 | 0.00 | 96 | 1012.4 |
| 20260502070059 | 10 | 0 | 0.0 | 0.0 | 0.00 | 0.03 | 0.00 | 96 | 1012.5 |
| 20260502065553 | 10 | 0 | 0.0 | 0.0 | 0.00 | 0.03 | 0.00 | 96 | 1012.4 |
| 20260502065051 | 10 | 0 | 0.0 | 0.0 | 0.00 | 0.03 | 0.00 | 96 | 1012.5 |
| 20260502064554 | 10 | 0 | 0.0 | 0.0 | 0.00 | 0.03 | 0.00 | 96 | 1012.6 |
| 20260502064051 | 10 | 0 | 0.0 | 0.0 | 0.00 | 0.03 | 0.00 | 96 | 1012.6 |
| 20260502063552 | 10 | 0 | 0.0 | 0.0 | 0.00 | 0.03 | 0.00 | 96 | 1012.6 |
| 20260502063104 | 10 | 0 | 0.0 | 0.0 | 0.00 | 0.03 | 0.00 | 95 | 1012.8 |
| 20260502062550 | 10 | 0 | 0.0 | 0.0 | 0.00 | 0.03 | 0.00 | 96 | 1012.7 |
| 20260502062052 | 10 | 0 | 0.0 | 0.0 | 0.00 | 0.03 | 0.00 | 96 | 1012.8 |
| 20260502061555 | 10 | 0 | 0.0 | 0.0 | 0.00 | 0.03 | 0.00 | 96 | 1012.9 |
| 20260502061048 | 10 | 0 | 0.0 | 0.0 | 0.00 | 0.03 | 0.00 | 95 | 1012.8 |
| 20260502060551 | 10 | 0 | 0.0 | 0.0 | 0.00 | 0.03 | 0.00 | 95 | 1012.8 |
| 20260502060106 | 10 | 0 | 0.0 | 0.0 | 0.00 | 0.03 | 0.00 | 95 | 1012.7 |
| 20260502055552 | 10 | 0 | 0.0 | 0.0 | 0.00 | 0.03 | 0.00 | 95 | 1012.8 |
| 20260502055053 | 10 | 0 | 0.0 | 0.0 | 0.00 | 0.03 | 0.00 | 95 | 1012.8 |
| 20260502054615 | 10 | 0 | 0.0 | 0.0 | 0.00 | 0.03 | 0.00 | 95 | 1012.9 |
| 20260502054049 | 10 | 0 | 0.0 | 0.0 | 0.00 | 0.03 | 0.00 | 95 | 1013.1 |
| 20260502053551 | 10 | 0 | 0.0 | 0.0 | 0.00 | 0.03 | 0.00 | 95 | 1013.1 |
| 20260502053051 | 10 | 0 | 0.0 | 0.0 | 0.00 | 0.03 | 0.00 | 95 | 1013.2 |
| 20260502052550 | 10 | 0 | 0.0 | 0.0 | 0.00 | 0.03 | 0.00 | 95 | 1013.0 |
| 20260502052049 | 11 | 0 | 0.0 | 0.0 | 0.00 | 0.03 | 0.00 | 95 | 1013.3 |
| 20260502051554 | 10 | 0 | 0.0 | 0.0 | 0.00 | 0.03 | 0.00 | 95 | 1013.3 |
| 20260502051052 | 10 | 0 | 0.0 | 0.0 | 0.00 | 0.03 | 0.00 | 95 | 1013.2 |
| 20260502050552 | 10 | 0 | 0.0 | 0.0 | 0.00 | 0.03 | 0.00 | 95 | 1013.4 |
| 20260502050054 | 11 | 0 | 0.0 | 0.0 | 0.00 | 0.03 | 0.00 | 95 | 1013.4 |
| 20260502045554 | 11 | 0 | 0.0 | 0.0 | 0.00 | 0.03 | 0.00 | 95 | 1013.3 |
| 20260502045052 | 11 | 0 | 0.0 | 0.0 | 0.00 | 0.03 | 0.00 | 95 | 1013.3 |
| 20260502044552 | 11 | 0 | 0.0 | 0.0 | 0.00 | 0.03 | 0.00 | 95 | 1013.4 |
| 20260502044052 | 11 | 0 | 0.0 | 0.0 | 0.00 | 0.03 | 0.00 | 95 | 1013.6 |
| 20260502043550 | 11 | 0 | 0.0 | 0.0 | 0.00 | 0.03 | 0.00 | 94 | 1013.6 |
| 20260502043104 | 11 | 0 | 0.0 | 0.0 | 0.00 | 0.03 | 0.00 | 95 | 1013.6 |
| 20260502042552 | 11 | 0 | 0.0 | 0.0 | 0.00 | 0.03 | 0.00 | 95 | 1013.6 |
| 20260502042052 | 11 | 0 | 0.0 | 0.0 | 0.00 | 0.03 | 0.00 | 94 | 1013.5 |
| 20260502041556 | 11 | 0 | 0.0 | 0.0 | 0.00 | 0.03 | 0.00 | 94 | 1013.6 |
| 20260502041052 | 11 | 0 | 0.0 | 0.0 | 0.00 | 0.03 | 0.00 | 94 | 1013.7 |
| 20260502040552 | 11 | 0 | 0.0 | 0.0 | 0.00 | 0.03 | 0.00 | 94 | 1013.7 |
| 20260502040055 | 11 | 0 | 0.0 | 0.0 | 0.00 | 0.03 | 0.00 | 94 | 1013.6 |
| 20260502035552 | 11 | 0 | 0.0 | 0.0 | 0.00 | 0.03 | 0.03 | 94 | 1013.9 |
| 20260502035048 | 11 | 0 | 0.0 | 0.0 | 0.00 | 0.03 | 0.03 | 94 | 1013.7 |
| 20260502034557 | 11 | 0 | 0.0 | 0.0 | 0.00 | 0.03 | 0.03 | 94 | 1013.7 |
| 20260502034052 | 10 | 0 | 0.0 | 0.0 | 0.00 | 0.03 | 0.03 | 93 | 1013.7 |
| 20260502033550 | 11 | 0 | 0.0 | 0.0 | 0.00 | 0.03 | 0.03 | 93 | 1013.8 |
| 20260502033052 | 11 | 0 | 0.0 | 0.0 | 0.00 | 0.03 | 0.03 | 93 | 1013.7 |
| 20260502032551 | 11 | 0 | 0.0 | 0.0 | 0.00 | 0.03 | 0.03 | 93 | 1013.8 |
| 20260502032051 | 11 | 0 | 0.0 | 0.0 | 0.00 | 0.03 | 0.03 | 93 | 1013.8 |
| 20260502031555 | 11 | 0 | 0.0 | 0.0 | 0.00 | 0.03 | 0.03 | 93 | 1013.8 |
| 20260502031051 | 11 | 0 | 0.0 | 0.0 | 0.00 | 0.03 | 0.03 | 93 | 1013.8 |
| 20260502030551 | 11 | 0 | 0.0 | 0.0 | 0.00 | 0.03 | 0.03 | 93 | 1013.9 |
| 20260502030106 | 11 | 0 | 0.0 | 0.0 | 0.00 | 0.03 | 0.03 | 93 | 1014.1 |
| 20260502025548 | 11 | 0 | 0.0 | 0.0 | 0.00 | 0.03 | 0.03 | 93 | 1014.0 |
| 20260502025128 | 11 | 0 | 0.0 | 0.0 | 0.00 | 0.03 | 0.03 | 92 | 1014.1 |
| 20260502024550 | 11 | 0 | 0.0 | 0.0 | 0.00 | 0.03 | 0.03 | 92 | 1014.1 |
| 20260502024051 | 11 | 0 | 0.0 | 0.0 | 0.00 | 0.03 | 0.03 | 92 | 1014.1 |
| 20260502023548 | 11 | 0 | 0.0 | 0.0 | 0.00 | 0.03 | 0.03 | 91 | 1014.1 |
| 20260502023057 | 11 | 0 | 0.0 | 0.0 | 0.00 | 0.03 | 0.03 | 91 | 1014.1 |
| 20260502022550 | 11 | 0 | 0.0 | 0.0 | 0.00 | 0.03 | 0.03 | 91 | 1014.3 |